sat.trackr.live / text

‹ back to catalog

YAOGAN-30 06C

NORAD 44451 · 2019-045C

PAYLOAD ACTIVE UNKNOWN

§ Identity

Operator
Country
PRC
Launch date
2019-07-26
Launch site
XICLF
Launch vehicle
Mass (kg)
RCS (m²)

External: N2YO · Heavens-Above · Gunter

§ Orbital elements

Epoch: 2026-05-25T04:55:39.990144Z

Period
95.84 min
Inclination
34.9927°
Eccentricity
0.0000925
Mean motion
15.02547598 rev/d
Perigee alt
558.4 km
Apogee alt
559.7 km
Semi-major
6,937.2 km
B*
1.7699e-4
RAAN
109.5693°
Arg perigee
241.1009°
Mean anomaly
118.9607°
Rev number
37,309

§ Raw data

YAOGAN-30 06C1 44451U 19045C   26145.20532396  .00002372  00000+0  17699-3 0  99932 44451  34.9927 109.5693 0000925 241.1009 118.9607 15.02547598373090

JSON: /api/v1/satellites/44451 · /tle

For live sub-satellite position, see the globe view (requires WebGL).

§ Visibility from observer

Set your observer location to see the next 7 days of passes ≥ 10°. The values pass through the URL so the page stays shareable.

No JS? Fill the form by hand. The geolocation button needs JavaScript.